User: anonymous   Login
Location: Champs
(48.8539°N, 2.6040°E)
Time: 13:54:19
(UTC+00:00)
Language:

Cosmos 1538 Rocket - Orbit

View from above orbital plane
View from above orbital plane
View from above satellite
View from above satellite

Ground track
Ground track

The orbit data is extracted from the following two-line orbital elements,

1 14760U 84019B   22273.16910316  .00000222  00000-0  85064-4 0  9996
2 14760  74.0449 179.2097 0028976 283.8146  75.9783 14.36018986 20734
Epoch (UTC): 30 September 2022 04:03:30
Eccentricity: 0.0028976
inclination: 74.0449°
perigee height: 751 km
apogee height: 792 km
right ascension of ascending node: 179.2097°
argument of perigee: 283.8146°
revolutions per day: 14.36018986
mean anomaly at epoch: 75.9783°
orbit number at epoch: 2073

The dashed part of the orbit path shows where the satellite is in the earth's shadow,  

DLR